Home   Weather   Unna   Past weeks

Flag for Germany Past Weather in Unna, North Rhine-Westphalia, Germany — Yesterday and Last 2 Weeks

Now
23 °F

Scattered clouds.


Feels Like: 23 °F
Forecast: 15 / 29 °F
Wind: 2 mph from North

Location: Dortmund / Wickede

Current Time: Jan 18, 2017 at 1:33:01 pm

Latest Report: Jan 18, 2017 at 12:50 pm


Visibility: 4 mi

Pressure: 30.66 "Hg

Humidity: 93%

Dew Point: 21 °F

Location of UnnaLocation

Past Weather in Unna — Graph

°F

Unna Temperature Yesterday

Maximum temperature yesterday: 27 °F (at 5:20 am)
Minimum temperature yesterday: 21 °F (at 8:20 am)
Average temperature yesterday: 24 °F

High & Low Weather Summary for the Past Weeks

 TemperatureHumidityPressure
High43 °F (Jan 11, 2:20 pm)100% (Jan 8, 6:20 am)30.72 "Hg (Jan 8, 6:20 am)
Low16 °F (Jan 6, 5:20 am)54% (Jan 6, 3:50 pm)29.06 "Hg (Jan 13, 5:20 am)
Average32 °F82%30.12 "Hg
* Reported Jan 3 12:20 pm — Jan 18 12:20 pm, Unna, Weather by CustomWeather, © 2017

Note: Actual official high and low records may vary slightly from our data, if they occured in-between our weather recording intervals... More about our weather records

Advertising

Unna Weather History for the Previous 24 Hours

Scroll right to see more
 ConditionsComfort  
Time TempWeatherWind HumidityBarometerVisibility
12:20 pm
Wed, Jan 18
23 °FPartly sunny.1 mph86%30.69 "Hg4 mi
11:50 am21 °FIce fog.2 mph93%30.69 "Hg1 mi
11:20 am21 °FIce fog.3 mph93%30.69 "Hg1 mi
10:50 am21 °FIce fog.2 mph93%30.69 "Hg1 mi
10:20 am21 °FIce fog.No wind93%30.69 "Hg1 mi
9:50 am21 °FIce fog.3 mph86%30.69 "Hg1 mi
9:20 am21 °FIce fog.2 mph86%30.69 "Hg1 mi
8:50 am21 °FIce fog.5 mph86%30.66 "Hg1 mi
8:20 am21 °FIce fog.3 mph86%30.66 "Hg1 mi
7:50 am21 °FIce fog.3 mph93%30.66 "Hg2 mi
7:20 am21 °FIce fog.3 mph93%30.66 "Hg2 mi
6:50 am21 °FIce fog.2 mph93%30.66 "Hg1 mi
6:20 am21 °FIce fog.3 mph93%30.66 "Hg1 mi
5:50 am23 °FIce fog.5 mph86%30.66 "Hg1 mi
5:20 am23 °FIce fog.3 mph93%30.66 "Hg1 mi
9:50 pm
Tue, Jan 17
25 °FIce fog.7 mph86%30.66 "Hg2 mi
9:20 pm25 °FIce fog.5 mph93%30.66 "Hg2 mi
8:50 pm25 °FIce fog.3 mph86%30.66 "Hg3 mi
8:20 pm25 °FClear.2 mph86%30.66 "Hg4 mi
7:50 pm25 °FPassing clouds.6 mph86%30.66 "Hg4 mi
7:28 pm23 °FPassing clouds.3 mph86%30.66 "Hg4 mi
6:50 pm25 °FPassing clouds.3 mph86%30.63 "HgN/A
6:20 pm25 °FPassing clouds.6 mph86%30.63 "HgN/A
5:50 pm25 °FLow clouds.7 mph86%30.63 "Hg4 mi
5:20 pm25 °FLow clouds.7 mph86%30.63 "Hg4 mi
4:50 pm25 °FIce fog.6 mph86%30.63 "Hg2 mi
4:20 pm23 °FIce fog.7 mph93%30.63 "Hg1 mi
3:50 pm23 °FIce fog.7 mph93%30.63 "Hg1 mi
3:20 pm23 °FIce fog.6 mph93%30.63 "Hg1 mi
2:50 pm23 °FIce fog.5 mph93%30.63 "Hg1 mi
2:20 pm23 °FLight snow. Ice fog.3 mph93%30.63 "Hg2 mi
1:50 pm25 °FIce fog.5 mph86%30.63 "Hg2 mi
1:20 pm25 °FIce fog.5 mph86%30.63 "Hg3 mi
Weather by CustomWeather, © 2017

See weather overviewHow to use our weather pages